Content
SEND FEEDBACK

Daily
Averages
Monthly
Summary
United States of America

RAPID CITY, SOUTH DAKOTA


Home > North America > United States > South Dakota
Elevation: 3162 feet     Latitude: 44 03N     Longitude: 103 04W

WEATHER
 
SELECT A DAY
Number of Records: 202,792;   Date Range: 1/1/95 - 9/30/14
 
SHARE

PRINT THIS DATA

[ ← Previous Day ]
WEATHER ALMANAC - MAY 25, 2013
[ Next Day → ]
[ °C ]   °F
Weather ElementAverageHighLow
Temperature68 °F82 °F (3:52 pm)50 °F (4:52 am)
Dewpoint54 °F57.9 °F (2:52 pm)46 °F (4:52 am)
Humidity63.2 %93 % (11:52 pm)39 % (3:52 pm)
Barometer29.84 in29.93 in (7:52 am)29.75 in (5:52 pm)
Wind Speed11 mph20.7 mph (4:52 pm)
Wind Gust28.8 mph (3:52 pm)
Weather ElementAverage
Visibility10 mi
Wind DirectionSSE (151.2 °)

Weather ElementTotal
Precipitation---
Cooling Degree Days1 (Base 65)
Growing Degree Days16 (Base 50)
Averaged from 25 records on May 25, 2013
WEATHER CONDITIONS BREAKOUT
WIND DIRECTION BREAKOUT
WEATHER BY HOUR - MAY 25, 2013
[ °C ]   °F
Local TimeTemperatureDewpointHumidityBarometerVisibilityWind DirectionWind SpeedGust SpeedPrecipitationEventsConditions
1:52 AM54.0 °F48.0 °F80 %29.88 in10.0 miNW (320°)10.4 mphClear
2:52 AM54.0 °F48.0 °F80 %29.88 in10.0 miNNW (330°)8.1 mphClear
3:52 AM51.1 °F46.9 °F86 %29.90 in10.0 miWNW (290°)3.5 mphClear
4:52 AM50.0 °F46.0 °F86 %29.91 in10.0 miNW (310°)4.6 mphClear
5:52 AM51.1 °F46.9 °F86 %29.92 in10.0 miNorth (350°)3.5 mphClear
6:52 AM57.0 °F50.0 °F77 %29.92 in10.0 miCalmClear
7:52 AM61.0 °F52.0 °F72 %29.93 in10.0 miCalmClear
8:52 AM64.9 °F54.0 °F68 %29.93 in10.0 miVariable3.5 mphClear
9:52 AM69.1 °F57.0 °F65 %29.90 in10.0 miSE (140°)10.4 mphClear
10:52 AM73.9 °F57.0 °F55 %29.88 in10.0 miSSE (160°)17.3 mph23.0 mphClear
11:52 AM75.0 °F55.9 °F51 %29.88 in10.0 miSSE (160°)15.0 mphClear
12:52 PM75.9 °F55.9 °F50 %29.87 in10.0 miSE (130°)15.0 mph19.6 mphScattered Clouds
1:52 PM79.0 °F55.9 °F45 %29.83 in10.0 miSSE (150°)13.8 mph20.7 mphClear
2:52 PM80.1 °F57.9 °F47 %29.81 in10.0 miSSE (160°)9.2 mphPartly Cloudy
3:52 PM82.0 °F55.0 °F39 %29.78 in10.0 miSSE (150°)19.6 mph28.8 mphPartly Cloudy
4:52 PM81.0 °F55.0 °F41 %29.76 in10.0 miSE (130°)20.7 mph28.8 mphPartly Cloudy
5:52 PM78.1 °F55.0 °F45 %29.75 in10.0 miSE (130°)19.6 mphPartly Cloudy
6:04 PM78.8 °F55.4 °F44 %29.80 in10.0 miSE (130°)16.1 mph24.2 mphThunderstormPartly Cloudy
6:19 PM77.0 °F55.4 °F47 %29.80 in10.0 miSE (130°)16.1 mphMostly Cloudy
6:52 PM75.9 °F55.9 °F50 %29.75 in10.0 miESE (120°)17.3 mph23.0 mphPartly Cloudy
7:52 PM73.0 °F55.9 °F55 %29.77 in10.0 miEast (80°)15.0 mphClear
8:52 PM70.0 °F57.9 °F65 %29.77 in10.0 miEast (90°)19.6 mph27.6 mphClear
9:52 PM68.0 °F57.9 °F70 %29.76 in10.0 miESE (110°)13.8 mphClear
10:52 PM62.1 °F57.0 °F84 %29.78 in10.0 miSSW (210°)3.5 mphClear
11:52 PM59.0 °F57.0 °F93 %29.77 in10.0 miCalmClear
Hourly data recorded from KRAP, located miles away from Rapid City, South Dakota







STORIES FROM OUR PARTNERS